NORTHEAST SUFFOLK  -  Special Weather Statement Special Weather Statement        NORTHERN NASSAU  -  Special Weather Statement Special Weather Statement        NORTHWEST SUFFOLK  -  Special Weather Statement Special Weather Statement        SOUTHEAST SUFFOLK  -  Special Weather Statement Special Weather Statement        SOUTHERN NASSAU  -  Special Weather Statement Special Weather Statement        SOUTHWEST SUFFOLK  -  Special Weather Statement Special Weather Statement      

Active alerts

Northern Nassau
  Details for Northern Nassau Special Weather Statement
Southern Nassau
  Details for Southern Nassau Special Weather Statement
Northwest Suffolk
  Details for Northwest Suffolk Special Weather Statement
Southwest Suffolk
  Details for Southwest Suffolk Special Weather Statement
Northeast Suffolk
  Details for Northeast Suffolk Special Weather Statement
Southeast Suffolk
  Details for Southeast Suffolk Special Weather Statement


WXM80 ListenWXM80 Stop

You find our weather info also at:

UK Metoffice

WeatherCloud

Weather Underground

Northeastern Weather Network

AWEKAS

Citizen Weather Observer Program (CWOP)

HAMweather, WeatherForYou, PWS Weather


Weather Underground History page Text

Daily Summary for May 6, 2017 Units:  Both    English   Metric
« Previous Day
Next Day »
Daily Weekly Monthly Yearly Custom
  High: Low: Average:
Temperature: 68.4 °F /  20.2 °C 55.5 °F /  13.1 °C 61.4 °F /  16.3 °C
Dew Point: 62.9 °F /  17.2 °C 51.1 °F /  10.6 °C 56.8 °F /  13.8 °C
Humidity: 98 % 63 % 86 %
Wind Speed: 11.5 mph /  18.5 km/h - 4.3 mph /  6.9 km/h
Wind Gust: 23.0 mph /  37 km/h - -
Wind:- - South
Pressure: 29.50 in /  998.9 hPa 29.36 in /  994.1 hPa -
Precipitation: 0.03 in /  0.76 mm    
Historical Graphs
 
 
Tabular Data for May 6, 2017
Time Temperature Dew Point Pressure Wind Wind Speed Wind Gust Humidity Rainfall Rate (Hourly)
00:00 60.9 °F /  16.1 °C 60.3 °F /  15.7 °C 29.50 in /  998.9 hPa SSE 4.9 mph /  7.9 km/h 10.4 mph /  16.7 km/h 98 % 0.00 in /  0 mm
00:05 60.9 °F /  16.1 °C 60.3 °F /  15.7 °C 29.50 in /  998.9 hPa ESE 5.5 mph /  8.9 km/h 10.0 mph /  16.1 km/h 98 % 0.00 in /  0 mm
00:10 61.0 °F /  16.1 °C 60.4 °F /  15.8 °C 29.50 in /  998.9 hPa South 0.8 mph /  1.3 km/h 9.2 mph /  14.8 km/h 98 % 0.00 in /  0 mm
00:15 61.1 °F /  16.2 °C 60.5 °F /  15.8 °C 29.50 in /  998.9 hPa SE 8.3 mph /  13.4 km/h 13.8 mph /  22.2 km/h 98 % 0.00 in /  0 mm
00:20 61.2 °F /  16.2 °C 60.6 °F /  15.9 °C 29.50 in /  998.9 hPa SSE 6.1 mph /  9.8 km/h 11.5 mph /  18.5 km/h 98 % 0.00 in /  0 mm
00:25 61.4 °F /  16.3 °C 60.8 °F /  16 °C 29.50 in /  998.9 hPa SSW 3.4 mph /  5.5 km/h 6.9 mph /  11.1 km/h 98 % 0.00 in /  0 mm
00:30 61.4 °F /  16.3 °C 60.8 °F /  16 °C 29.50 in /  998.9 hPa SSE 5.4 mph /  8.7 km/h 10.0 mph /  16.1 km/h 98 % 0.00 in /  0 mm
00:32 61.4 °F /  16.3 °C 60.8 °F /  16 °C 29.50 in /  998.9 hPa SSE 5.9 mph /  9.5 km/h 13.0 mph /  20.9 km/h 98 % 0.00 in /  0 mm
00:37 61.6 °F /  16.4 °C 61.0 °F /  16.1 °C 29.50 in /  998.9 hPa SSE 6.9 mph /  11.1 km/h 12.7 mph /  20.4 km/h 98 % 0.00 in /  0 mm
00:42 61.6 °F /  16.4 °C 61.0 °F /  16.1 °C 29.49 in /  998.5 hPa South 7.3 mph /  11.7 km/h 12.7 mph /  20.4 km/h 98 % 0.00 in /  0 mm
00:47 61.6 °F /  16.4 °C 61.0 °F /  16.1 °C 29.50 in /  998.9 hPa SSE 4.5 mph /  7.2 km/h 10.0 mph /  16.1 km/h 98 % 0.00 in /  0 mm
00:52 61.5 °F /  16.4 °C 60.9 °F /  16.1 °C 29.50 in /  998.9 hPa SSE 5.3 mph /  8.5 km/h 13.0 mph /  20.9 km/h 98 % 0.00 in /  0 mm
00:57 61.5 °F /  16.4 °C 60.9 °F /  16.1 °C 29.49 in /  998.5 hPa South 3.0 mph /  4.8 km/h 11.5 mph /  18.5 km/h 98 % 0.00 in /  0 mm
01:02 61.5 °F /  16.4 °C 60.6 °F /  15.9 °C 29.49 in /  998.5 hPa SSE 3.7 mph /  6 km/h 9.2 mph /  14.8 km/h 97 % 0.00 in /  0 mm
01:07 61.5 °F /  16.4 °C 60.6 °F /  15.9 °C 29.49 in /  998.5 hPa South 6.2 mph /  10 km/h 16.1 mph /  25.9 km/h 97 % 0.00 in /  0 mm
01:12 61.5 °F /  16.4 °C 60.6 °F /  15.9 °C 29.48 in /  998.2 hPa South 4.7 mph /  7.6 km/h 16.1 mph /  25.9 km/h 97 % 0.00 in /  0 mm
01:17 61.6 °F /  16.4 °C 60.7 °F /  15.9 °C 29.48 in /  998.2 hPa SE 9.9 mph /  15.9 km/h 18.4 mph /  29.6 km/h 97 % 0.00 in /  0 mm
01:22 61.6 °F /  16.4 °C 60.7 °F /  15.9 °C 29.48 in /  998.2 hPa SSE 7.1 mph /  11.4 km/h 10.0 mph /  16.1 km/h 97 % 0.00 in /  0 mm
01:27 61.7 °F /  16.5 °C 60.8 °F /  16 °C 29.48 in /  998.2 hPa SSE 6.5 mph /  10.5 km/h 12.0 mph /  19.3 km/h 97 % 0.00 in /  0 mm
01:32 61.7 °F /  16.5 °C 60.8 °F /  16 °C 29.48 in /  998.2 hPa SSW 5.6 mph /  9 km/h 17.3 mph /  27.8 km/h 97 % 0.00 in /  0 mm
01:37 61.8 °F /  16.6 °C 60.9 °F /  16.1 °C 29.48 in /  998.2 hPa SSE 9.4 mph /  15.1 km/h 16.0 mph /  25.7 km/h 97 % 0.00 in /  0 mm
01:43 61.9 °F /  16.6 °C 61.0 °F /  16.1 °C 29.47 in /  997.9 hPa SSE 4.8 mph /  7.7 km/h 15.0 mph /  24.1 km/h 97 % 0.00 in /  0 mm
01:48 61.9 °F /  16.6 °C 61.0 °F /  16.1 °C 29.46 in /  997.5 hPa SE 7.7 mph /  12.4 km/h 17.3 mph /  27.8 km/h 97 % 0.00 in /  0 mm
01:53 61.9 °F /  16.6 °C 61.0 °F /  16.1 °C 29.46 in /  997.5 hPa South 9.3 mph /  15 km/h 17.3 mph /  27.8 km/h 97 % 0.00 in /  0 mm
01:58 61.8 °F /  16.6 °C 60.6 °F /  15.9 °C 29.47 in /  997.9 hPa South 3.9 mph /  6.3 km/h 10.4 mph /  16.7 km/h 96 % 0.00 in /  0 mm
02:03 61.7 °F /  16.5 °C 60.5 °F /  15.8 °C 29.47 in /  997.9 hPa South 5.5 mph /  8.9 km/h 9.2 mph /  14.8 km/h 96 % 0.00 in /  0 mm
02:08 61.6 °F /  16.4 °C 60.4 °F /  15.8 °C 29.46 in /  997.5 hPa South 3.5 mph /  5.6 km/h 4.0 mph /  6.4 km/h 96 % 0.00 in /  0 mm
02:13 61.6 °F /  16.4 °C 60.4 °F /  15.8 °C 29.46 in /  997.5 hPa South 7.4 mph /  11.9 km/h 21.9 mph /  35.2 km/h 96 % 0.00 in /  0 mm
02:18 61.6 °F /  16.4 °C 60.7 °F /  15.9 °C 29.45 in /  997.2 hPa SSE 8.2 mph /  13.2 km/h 10.4 mph /  16.7 km/h 97 % 0.01 in /  0.25 mm
02:23 61.7 °F /  16.5 °C 60.8 °F /  16 °C 29.45 in /  997.2 hPa South 11.5 mph /  18.5 km/h 23.0 mph /  37 km/h 97 % 0.01 in /  0.25 mm
02:28 61.8 °F /  16.6 °C 60.9 °F /  16.1 °C 29.44 in /  996.8 hPa South 4.6 mph /  7.4 km/h 12.7 mph /  20.4 km/h 97 % 0.01 in /  0.25 mm
02:33 61.8 °F /  16.6 °C 60.9 °F /  16.1 °C 29.44 in /  996.8 hPa South 8.2 mph /  13.2 km/h 17.3 mph /  27.8 km/h 97 % 0.01 in /  0.25 mm
02:38 61.9 °F /  16.6 °C 61.0 °F /  16.1 °C 29.43 in /  996.5 hPa South 7.3 mph /  11.7 km/h 11.5 mph /  18.5 km/h 97 % 0.01 in /  0.25 mm
02:43 61.9 °F /  16.6 °C 61.0 °F /  16.1 °C 29.44 in /  996.8 hPa SSE 7.8 mph /  12.6 km/h 16.1 mph /  25.9 km/h 97 % 0.01 in /  0.25 mm
02:48 61.9 °F /  16.6 °C 61.0 °F /  16.1 °C 29.44 in /  996.8 hPa SE 5.8 mph /  9.3 km/h 11.5 mph /  18.5 km/h 97 % 0.01 in /  0.25 mm
02:53 62.0 °F /  16.7 °C 61.1 °F /  16.2 °C 29.43 in /  996.5 hPa South 7.4 mph /  11.9 km/h 23.0 mph /  37 km/h 97 % 0.02 in /  0.51 mm
02:58 62.1 °F /  16.7 °C 61.2 °F /  16.2 °C 29.44 in /  996.8 hPa SE 7.9 mph /  12.7 km/h 13.8 mph /  22.2 km/h 97 % 0.02 in /  0.51 mm
03:03 62.1 °F /  16.7 °C 61.2 °F /  16.2 °C 29.42 in /  996.2 hPa SSE 5.0 mph /  8 km/h 13.0 mph /  20.9 km/h 97 % 0.02 in /  0.51 mm
03:08 62.1 °F /  16.7 °C 61.2 °F /  16.2 °C 29.43 in /  996.5 hPa SE 3.8 mph /  6.1 km/h 11.5 mph /  18.5 km/h 97 % 0.02 in /  0.51 mm
03:13 62.1 °F /  16.7 °C 61.2 °F /  16.2 °C 29.43 in /  996.5 hPa SSE 5.7 mph /  9.2 km/h 10.0 mph /  16.1 km/h 97 % 0.02 in /  0.51 mm
03:18 62.2 °F /  16.8 °C 61.3 °F /  16.3 °C 29.42 in /  996.2 hPa South 5.5 mph /  8.9 km/h 23.0 mph /  37 km/h 97 % 0.01 in /  0.25 mm
03:24 62.3 °F /  16.8 °C 61.4 °F /  16.3 °C 29.42 in /  996.2 hPa SSE 3.5 mph /  5.6 km/h 9.2 mph /  14.8 km/h 97 % 0.01 in /  0.25 mm
03:29 62.4 °F /  16.9 °C 61.5 °F /  16.4 °C 29.41 in /  995.8 hPa SSE 5.7 mph /  9.2 km/h 12.7 mph /  20.4 km/h 97 % 0.01 in /  0.25 mm
03:34 62.5 °F /  16.9 °C 61.6 °F /  16.4 °C 29.41 in /  995.8 hPa South 8.9 mph /  14.3 km/h 16.1 mph /  25.9 km/h 97 % 0.01 in /  0.25 mm
03:40 62.5 °F /  16.9 °C 61.6 °F /  16.4 °C 29.41 in /  995.8 hPa South 7.8 mph /  12.6 km/h 15.0 mph /  24.1 km/h 97 % 0.01 in /  0.25 mm
03:45 62.6 °F /  17 °C 61.7 °F /  16.5 °C 29.41 in /  995.8 hPa SW 6.7 mph /  10.8 km/h 11.5 mph /  18.5 km/h 97 % 0.01 in /  0.25 mm
03:50 62.6 °F /  17 °C 61.7 °F /  16.5 °C 29.41 in /  995.8 hPa East 6.4 mph /  10.3 km/h 10.4 mph /  16.7 km/h 97 % 0.01 in /  0.25 mm
03:55 62.7 °F /  17.1 °C 61.8 °F /  16.6 °C 29.40 in /  995.5 hPa ESE 9.3 mph /  15 km/h 21.0 mph /  33.8 km/h 97 % 0.00 in /  0 mm
04:00 62.9 °F /  17.2 °C 62.3 °F /  16.8 °C 29.40 in /  995.5 hPa East 7.7 mph /  12.4 km/h 15.0 mph /  24.1 km/h 98 % 0.00 in /  0 mm
04:05 63.2 °F /  17.3 °C 62.6 °F /  17 °C 29.40 in /  995.5 hPa SSE 11.2 mph /  18 km/h 17.3 mph /  27.8 km/h 98 % 0.00 in /  0 mm
04:10 63.5 °F /  17.5 °C 62.9 °F /  17.2 °C 29.39 in /  995.1 hPa South 7.3 mph /  11.7 km/h 16.1 mph /  25.9 km/h 98 % 0.00 in /  0 mm
04:15 63.5 °F /  17.5 °C 62.9 °F /  17.2 °C 29.39 in /  995.1 hPa SSW 5.4 mph /  8.7 km/h 10.4 mph /  16.7 km/h 98 % 0.00 in /  0 mm
04:20 63.4 °F /  17.4 °C 62.8 °F /  17.1 °C 29.40 in /  995.5 hPa South 7.9 mph /  12.7 km/h 11.0 mph /  17.7 km/h 98 % 0.00 in /  0 mm
04:25 63.2 °F /  17.3 °C 62.3 °F /  16.8 °C 29.39 in /  995.1 hPa SSE 8.3 mph /  13.4 km/h 11.5 mph /  18.5 km/h 97 % 0.01 in /  0.25 mm
04:30 62.9 °F /  17.2 °C 62.0 °F /  16.7 °C 29.39 in /  995.1 hPa SSW 5.3 mph /  8.5 km/h 11.5 mph /  18.5 km/h 97 % 0.01 in /  0.25 mm
04:35 62.6 °F /  17 °C 61.7 °F /  16.5 °C 29.40 in /  995.5 hPa SSE 6.7 mph /  10.8 km/h 10.0 mph /  16.1 km/h 97 % 0.01 in /  0.25 mm
04:40 62.3 °F /  16.8 °C 61.4 °F /  16.3 °C 29.39 in /  995.1 hPa East 4.4 mph /  7.1 km/h 10.4 mph /  16.7 km/h 97 % 0.01 in /  0.25 mm
04:45 62.1 °F /  16.7 °C 61.2 °F /  16.2 °C 29.39 in /  995.1 hPa SE 4.1 mph /  6.6 km/h 15.0 mph /  24.1 km/h 97 % 0.01 in /  0.25 mm
04:50 61.9 °F /  16.6 °C 61.0 °F /  16.1 °C 29.39 in /  995.1 hPa SSW 3.1 mph /  5 km/h 9.2 mph /  14.8 km/h 97 % 0.01 in /  0.25 mm
04:55 61.7 °F /  16.5 °C 60.8 °F /  16 °C 29.40 in /  995.5 hPa South 3.1 mph /  5 km/h 20.7 mph /  33.3 km/h 97 % 0.01 in /  0.25 mm
05:01 61.6 °F /  16.4 °C 60.7 °F /  15.9 °C 29.39 in /  995.1 hPa South 3.7 mph /  6 km/h 10.4 mph /  16.7 km/h 97 % 0.01 in /  0.25 mm
05:06 61.4 °F /  16.3 °C 60.5 °F /  15.8 °C 29.39 in /  995.1 hPa South 5.5 mph /  8.9 km/h 11.5 mph /  18.5 km/h 97 % 0.01 in /  0.25 mm
05:11 61.3 °F /  16.3 °C 60.4 °F /  15.8 °C 29.38 in /  994.8 hPa South 7.7 mph /  12.4 km/h 15.0 mph /  24.1 km/h 97 % 0.01 in /  0.25 mm
05:16 61.2 °F /  16.2 °C 60.3 °F /  15.7 °C 29.39 in /  995.1 hPa SSE 5.6 mph /  9 km/h 13.8 mph /  22.2 km/h 97 % 0.01 in /  0.25 mm
05:21 61.2 °F /  16.2 °C 60.3 °F /  15.7 °C 29.38 in /  994.8 hPa South 5.5 mph /  8.9 km/h 16.1 mph /  25.9 km/h 97 % 0.01 in /  0.25 mm
05:26 61.2 °F /  16.2 °C 60.3 °F /  15.7 °C 29.37 in /  994.5 hPa SSE 9.0 mph /  14.5 km/h 20.0 mph /  32.2 km/h 97 % 0.00 in /  0 mm
05:31 61.1 °F /  16.2 °C 60.3 °F /  15.7 °C 29.38 in /  994.8 hPa South 3.0 mph /  4.8 km/h 13.0 mph /  20.9 km/h 97 % 0.00 in /  0 mm
05:36 61.1 °F /  16.2 °C 60.3 °F /  15.7 °C 29.37 in /  994.5 hPa SSE 5.0 mph /  8 km/h 15.0 mph /  24.1 km/h 97 % 0.00 in /  0 mm
05:41 61.2 °F /  16.2 °C 60.3 °F /  15.7 °C 29.37 in /  994.5 hPa South 3.0 mph /  4.8 km/h 12.0 mph /  19.3 km/h 97 % 0.00 in /  0 mm
05:46 61.2 °F /  16.2 °C 60.3 °F /  15.7 °C 29.38 in /  994.8 hPa South 6.0 mph /  9.7 km/h 14.0 mph /  22.5 km/h 97 % 0.00 in /  0 mm
05:51 61.2 °F /  16.2 °C 60.4 °F /  15.8 °C 29.38 in /  994.8 hPa SSE 3.0 mph /  4.8 km/h 12.0 mph /  19.3 km/h 97 % 0.00 in /  0 mm
05:56 61.3 °F /  16.3 °C 60.4 °F /  15.8 °C 29.38 in /  994.8 hPa SSE 5.0 mph /  8 km/h 15.0 mph /  24.1 km/h 97 % 0.00 in /  0 mm
06:01 61.3 °F /  16.3 °C 60.4 °F /  15.8 °C 29.38 in /  994.8 hPa ESE 4.9 mph /  7.9 km/h 13.8 mph /  22.2 km/h 97 % 0.00 in /  0 mm
06:06 61.2 °F /  16.2 °C 60.3 °F /  15.7 °C 29.39 in /  995.1 hPa South 6.9 mph /  11.1 km/h 12.7 mph /  20.4 km/h 97 % 0.00 in /  0 mm
06:11 61.1 °F /  16.2 °C 60.2 °F /  15.7 °C 29.40 in /  995.5 hPa SSW 4.6 mph /  7.4 km/h 10.4 mph /  16.7 km/h 97 % 0.00 in /  0 mm
06:16 60.9 °F /  16.1 °C 60.0 °F /  15.6 °C 29.40 in /  995.5 hPa South 4.3 mph /  6.9 km/h 6.9 mph /  11.1 km/h 97 % 0.00 in /  0 mm
06:21 60.7 °F /  15.9 °C 59.8 °F /  15.4 °C 29.40 in /  995.5 hPa SSW 4.0 mph /  6.4 km/h 10.4 mph /  16.7 km/h 97 % 0.00 in /  0 mm
06:26 60.6 °F /  15.9 °C 59.7 °F /  15.4 °C 29.40 in /  995.5 hPa SSW 5.2 mph /  8.4 km/h 12.7 mph /  20.4 km/h 97 % 0.00 in /  0 mm
06:31 60.5 °F /  15.8 °C 59.6 °F /  15.3 °C 29.40 in /  995.5 hPa SSW 6.3 mph /  10.1 km/h 10.4 mph /  16.7 km/h 97 % 0.00 in /  0 mm
06:36 60.4 °F /  15.8 °C 59.5 °F /  15.3 °C 29.40 in /  995.5 hPa SW 4.2 mph /  6.8 km/h 9.0 mph /  14.5 km/h 97 % 0.00 in /  0 mm
06:41 60.4 °F /  15.8 °C 59.5 °F /  15.3 °C 29.40 in /  995.5 hPa SSE 5.1 mph /  8.2 km/h 10.4 mph /  16.7 km/h 97 % 0.00 in /  0 mm
06:46 60.3 °F /  15.7 °C 59.4 °F /  15.2 °C 29.41 in /  995.8 hPa South 2.0 mph /  3.2 km/h 11.5 mph /  18.5 km/h 97 % 0.00 in /  0 mm
06:51 60.3 °F /  15.7 °C 59.4 °F /  15.2 °C 29.41 in /  995.8 hPa South 2.6 mph /  4.2 km/h 4.0 mph /  6.4 km/h 97 % 0.00 in /  0 mm
06:56 60.3 °F /  15.7 °C 59.4 °F /  15.2 °C 29.40 in /  995.5 hPa SSW 3.2 mph /  5.1 km/h 8.1 mph /  13 km/h 97 % 0.00 in /  0 mm
07:01 60.2 °F /  15.7 °C 59.3 °F /  15.2 °C 29.40 in /  995.5 hPa SSE 2.8 mph /  4.5 km/h 11.0 mph /  17.7 km/h 97 % 0.00 in /  0 mm
07:06 60.2 °F /  15.7 °C 59.3 °F /  15.2 °C 29.40 in /  995.5 hPa SE 4.7 mph /  7.6 km/h 10.4 mph /  16.7 km/h 97 % 0.00 in /  0 mm
07:11 60.1 °F /  15.6 °C 59.2 °F /  15.1 °C 29.40 in /  995.5 hPa SE 6.0 mph /  9.7 km/h 10.0 mph /  16.1 km/h 97 % 0.00 in /  0 mm
07:16 60.0 °F /  15.6 °C 59.1 °F /  15.1 °C 29.40 in /  995.5 hPa SSE 1.8 mph /  2.9 km/h 6.9 mph /  11.1 km/h 97 % 0.00 in /  0 mm
07:21 60.0 °F /  15.6 °C 58.9 °F /  14.9 °C 29.40 in /  995.5 hPa South 2.4 mph /  3.9 km/h 5.0 mph /  8 km/h 96 % 0.00 in /  0 mm
07:26 60.0 °F /  15.6 °C 58.9 °F /  14.9 °C 29.40 in /  995.5 hPa South 2.2 mph /  3.5 km/h 10.4 mph /  16.7 km/h 96 % 0.00 in /  0 mm
07:31 59.9 °F /  15.5 °C 58.8 °F /  14.9 °C 29.40 in /  995.5 hPa SSW 4.3 mph /  6.9 km/h 6.0 mph /  9.7 km/h 96 % 0.00 in /  0 mm
07:37 59.8 °F /  15.4 °C 58.7 °F /  14.8 °C 29.41 in /  995.8 hPa SSE 3.3 mph /  5.3 km/h 11.5 mph /  18.5 km/h 96 % 0.00 in /  0 mm
07:42 59.8 °F /  15.4 °C 58.7 °F /  14.8 °C 29.41 in /  995.8 hPa SSW 2.2 mph /  3.5 km/h 3.5 mph /  5.6 km/h 96 % 0.00 in /  0 mm
07:47 59.7 °F /  15.4 °C 58.6 °F /  14.8 °C 29.40 in /  995.5 hPa SSW 1.3 mph /  2.1 km/h 4.6 mph /  7.4 km/h 96 % 0.00 in /  0 mm
07:52 59.7 °F /  15.4 °C 58.6 °F /  14.8 °C 29.40 in /  995.5 hPa South 3.1 mph /  5 km/h 11.5 mph /  18.5 km/h 96 % 0.00 in /  0 mm
07:57 59.6 °F /  15.3 °C 58.2 °F /  14.6 °C 29.40 in /  995.5 hPa SSW 2.9 mph /  4.7 km/h 4.6 mph /  7.4 km/h 95 % 0.00 in /  0 mm
08:02 59.6 °F /  15.3 °C 58.2 °F /  14.6 °C 29.40 in /  995.5 hPa ESE 3.8 mph /  6.1 km/h 6.9 mph /  11.1 km/h 95 % 0.00 in /  0 mm
08:07 59.5 °F /  15.3 °C 58.1 °F /  14.5 °C 29.41 in /  995.8 hPa SE 3.2 mph /  5.1 km/h 5.8 mph /  9.3 km/h 95 % 0.00 in /  0 mm
08:12 59.5 °F /  15.3 °C 58.1 °F /  14.5 °C 29.40 in /  995.5 hPa South 1.5 mph /  2.4 km/h 4.0 mph /  6.4 km/h 95 % 0.00 in /  0 mm
08:17 59.6 °F /  15.3 °C 58.2 °F /  14.6 °C 29.40 in /  995.5 hPa SSE 1.1 mph /  1.8 km/h 4.0 mph /  6.4 km/h 95 % 0.00 in /  0 mm
08:22 59.6 °F /  15.3 °C 58.2 °F /  14.6 °C 29.40 in /  995.5 hPa SSE 4.4 mph /  7.1 km/h 8.1 mph /  13 km/h 95 % 0.00 in /  0 mm
08:27 59.6 °F /  15.3 °C 57.9 °F /  14.4 °C 29.40 in /  995.5 hPa ESE 0.6 mph /  1 km/h 2.0 mph /  3.2 km/h 94 % 0.00 in /  0 mm
08:32 59.6 °F /  15.3 °C 58.2 °F /  14.6 °C 29.40 in /  995.5 hPa SE 1.5 mph /  2.4 km/h 7.0 mph /  11.3 km/h 95 % 0.00 in /  0 mm
08:37 59.7 °F /  15.4 °C 58.0 °F /  14.4 °C 29.40 in /  995.5 hPa SSE 0.8 mph /  1.3 km/h 3.5 mph /  5.6 km/h 94 % 0.00 in /  0 mm
08:42 59.7 °F /  15.4 °C 58.0 °F /  14.4 °C 29.40 in /  995.5 hPa East 4.6 mph /  7.4 km/h 11.5 mph /  18.5 km/h 94 % 0.00 in /  0 mm
08:47 59.7 °F /  15.4 °C 57.7 °F /  14.3 °C 29.41 in /  995.8 hPa SSE 1.7 mph /  2.7 km/h 4.0 mph /  6.4 km/h 93 % 0.00 in /  0 mm
08:49 59.7 °F /  15.4 °C 57.7 °F /  14.3 °C 29.40 in /  995.5 hPa SSE 0.2 mph /  0.3 km/h 4.6 mph /  7.4 km/h 93 % 0.00 in /  0 mm
08:53 59.7 °F /  15.4 °C 57.4 °F /  14.1 °C 29.41 in /  995.8 hPa SSE 4.5 mph /  7.2 km/h 8.1 mph /  13 km/h 92 % 0.00 in /  0 mm
08:58 59.8 °F /  15.4 °C 57.2 °F /  14 °C 29.41 in /  995.8 hPa SE 2.7 mph /  4.3 km/h 5.0 mph /  8 km/h 91 % 0.00 in /  0 mm
09:04 59.9 °F /  15.5 °C 57.3 °F /  14.1 °C 29.41 in /  995.8 hPa South 2.4 mph /  3.9 km/h 8.1 mph /  13 km/h 91 % 0.00 in /  0 mm
09:09 60.0 °F /  15.6 °C 57.4 °F /  14.1 °C 29.42 in /  996.2 hPa SSE 5.5 mph /  8.9 km/h 8.1 mph /  13 km/h 91 % 0.00 in /  0 mm
09:14 60.1 °F /  15.6 °C 57.5 °F /  14.2 °C 29.41 in /  995.8 hPa SE 2.8 mph /  4.5 km/h 5.0 mph /  8 km/h 91 % 0.00 in /  0 mm
09:19 60.2 °F /  15.7 °C 57.3 °F /  14.1 °C 29.41 in /  995.8 hPa SSE 4.3 mph /  6.9 km/h 12.0 mph /  19.3 km/h 90 % 0.00 in /  0 mm
09:24 60.3 °F /  15.7 °C 57.4 °F /  14.1 °C 29.41 in /  995.8 hPa SSE 3.7 mph /  6 km/h 6.9 mph /  11.1 km/h 90 % 0.00 in /  0 mm
09:29 60.4 °F /  15.8 °C 57.1 °F /  13.9 °C 29.42 in /  996.2 hPa SSE 3.3 mph /  5.3 km/h 8.1 mph /  13 km/h 89 % 0.00 in /  0 mm
09:34 60.5 °F /  15.8 °C 56.6 °F /  13.7 °C 29.41 in /  995.8 hPa SSE 3.5 mph /  5.6 km/h 10.4 mph /  16.7 km/h 87 % 0.00 in /  0 mm
09:39 60.6 °F /  15.9 °C 56.7 °F /  13.7 °C 29.41 in /  995.8 hPa SSE 4.8 mph /  7.7 km/h 8.1 mph /  13 km/h 87 % 0.00 in /  0 mm
09:44 60.7 °F /  15.9 °C 56.5 °F /  13.6 °C 29.41 in /  995.8 hPa South 2.3 mph /  3.7 km/h 5.0 mph /  8 km/h 86 % 0.00 in /  0 mm
09:49 60.6 °F /  15.9 °C 55.7 °F /  13.2 °C 29.41 in /  995.8 hPa SSE 4.0 mph /  6.4 km/h 9.2 mph /  14.8 km/h 84 % 0.00 in /  0 mm
09:54 60.6 °F /  15.9 °C 56.1 °F /  13.4 °C 29.41 in /  995.8 hPa SSE 3.4 mph /  5.5 km/h 5.8 mph /  9.3 km/h 85 % 0.00 in /  0 mm
09:59 60.5 °F /  15.8 °C 55.3 °F /  12.9 °C 29.41 in /  995.8 hPa SE 3.6 mph /  5.8 km/h 11.5 mph /  18.5 km/h 83 % 0.00 in /  0 mm
10:04 60.6 °F /  15.9 °C 56.1 °F /  13.4 °C 29.42 in /  996.2 hPa SE 3.9 mph /  6.3 km/h 6.9 mph /  11.1 km/h 85 % 0.00 in /  0 mm
10:09 60.6 °F /  15.9 °C 55.4 °F /  13 °C 29.42 in /  996.2 hPa SSW 3.6 mph /  5.8 km/h 5.0 mph /  8 km/h 83 % 0.00 in /  0 mm
10:14 60.7 °F /  15.9 °C 55.2 °F /  12.9 °C 29.42 in /  996.2 hPa South 2.6 mph /  4.2 km/h 4.6 mph /  7.4 km/h 82 % 0.00 in /  0 mm
10:19 60.8 °F /  16 °C 54.9 °F /  12.7 °C 29.42 in /  996.2 hPa SE 7.5 mph /  12.1 km/h 14.0 mph /  22.5 km/h 81 % 0.00 in /  0 mm
10:24 60.8 °F /  16 °C 54.9 °F /  12.7 °C 29.42 in /  996.2 hPa South 8.3 mph /  13.4 km/h 13.8 mph /  22.2 km/h 81 % 0.00 in /  0 mm
10:29 60.8 °F /  16 °C 54.9 °F /  12.7 °C 29.42 in /  996.2 hPa SE 6.8 mph /  10.9 km/h 17.0 mph /  27.4 km/h 81 % 0.00 in /  0 mm
10:34 60.8 °F /  16 °C 54.9 °F /  12.7 °C 29.41 in /  995.8 hPa South 2.6 mph /  4.2 km/h 4.6 mph /  7.4 km/h 81 % 0.00 in /  0 mm
10:39 61.0 °F /  16.1 °C 55.1 °F /  12.8 °C 29.41 in /  995.8 hPa SE 1.9 mph /  3.1 km/h 8.1 mph /  13 km/h 81 % 0.00 in /  0 mm
10:44 61.4 °F /  16.3 °C 55.5 °F /  13.1 °C 29.41 in /  995.8 hPa SSW 5.5 mph /  8.9 km/h 9.2 mph /  14.8 km/h 81 % 0.00 in /  0 mm
10:49 61.7 °F /  16.5 °C 55.5 °F /  13.1 °C 29.42 in /  996.2 hPa South 3.8 mph /  6.1 km/h 8.0 mph /  12.9 km/h 80 % 0.00 in /  0 mm
10:54 61.7 °F /  16.5 °C 54.8 °F /  12.7 °C 29.41 in /  995.8 hPa WSW 4.6 mph /  7.4 km/h 6.0 mph /  9.7 km/h 78 % 0.00 in /  0 mm
10:59 61.9 °F /  16.6 °C 55.0 °F /  12.8 °C 29.42 in /  996.2 hPa SSW 3.5 mph /  5.6 km/h 12.7 mph /  20.4 km/h 78 % 0.00 in /  0 mm
11:04 62.4 °F /  16.9 °C 55.4 °F /  13 °C 29.42 in /  996.2 hPa South 3.5 mph /  5.6 km/h 6.9 mph /  11.1 km/h 78 % 0.00 in /  0 mm
11:09 63.0 °F /  17.2 °C 54.9 °F /  12.7 °C 29.41 in /  995.8 hPa SE 10.3 mph /  16.6 km/h 16.1 mph /  25.9 km/h 75 % 0.00 in /  0 mm
11:14 63.8 °F /  17.7 °C 57.2 °F /  14 °C 29.41 in /  995.8 hPa SSW 6.1 mph /  9.8 km/h 8.0 mph /  12.9 km/h 79 % 0.00 in /  0 mm
11:19 64.8 °F /  18.2 °C 57.4 °F /  14.1 °C 29.41 in /  995.8 hPa SE 4.1 mph /  6.6 km/h 8.1 mph /  13 km/h 77 % 0.00 in /  0 mm
11:24 65.5 °F /  18.6 °C 57.7 °F /  14.3 °C 29.41 in /  995.8 hPa South 3.8 mph /  6.1 km/h 6.9 mph /  11.1 km/h 76 % 0.00 in /  0 mm
11:29 66.1 °F /  18.9 °C 57.6 °F /  14.2 °C 29.42 in /  996.2 hPa SSE 5.7 mph /  9.2 km/h 10.0 mph /  16.1 km/h 74 % 0.00 in /  0 mm
11:34 66.4 °F /  19.1 °C 56.3 °F /  13.5 °C 29.41 in /  995.8 hPa SSE 7.2 mph /  11.6 km/h 20.0 mph /  32.2 km/h 70 % 0.00 in /  0 mm
11:39 66.3 °F /  19.1 °C 55.8 °F /  13.2 °C 29.41 in /  995.8 hPa SSW 5.7 mph /  9.2 km/h 15.0 mph /  24.1 km/h 69 % 0.00 in /  0 mm
11:44 66.5 °F /  19.2 °C 56.4 °F /  13.6 °C 29.41 in /  995.8 hPa South 5.3 mph /  8.5 km/h 10.4 mph /  16.7 km/h 70 % 0.00 in /  0 mm
11:50 66.6 °F /  19.2 °C 56.1 °F /  13.4 °C 29.41 in /  995.8 hPa South 4.5 mph /  7.2 km/h 15.0 mph /  24.1 km/h 69 % 0.00 in /  0 mm
11:55 66.7 °F /  19.3 °C 55.4 °F /  13 °C 29.41 in /  995.8 hPa South 3.4 mph /  5.5 km/h 11.5 mph /  18.5 km/h 67 % 0.00 in /  0 mm
12:00 66.7 °F /  19.3 °C 55.4 °F /  13 °C 29.41 in /  995.8 hPa South 7.7 mph /  12.4 km/h 11.5 mph /  18.5 km/h 67 % 0.00 in /  0 mm
12:05 67.0 °F /  19.4 °C 55.7 °F /  13.2 °C 29.40 in /  995.5 hPa South 4.4 mph /  7.1 km/h 11.5 mph /  18.5 km/h 67 % 0.00 in /  0 mm
12:10 67.3 °F /  19.6 °C 56.4 °F /  13.6 °C 29.40 in /  995.5 hPa SSW 4.7 mph /  7.6 km/h 10.4 mph /  16.7 km/h 68 % 0.00 in /  0 mm
12:15 67.5 °F /  19.7 °C 55.3 °F /  12.9 °C 29.40 in /  995.5 hPa SSW 6.5 mph /  10.5 km/h 16.1 mph /  25.9 km/h 65 % 0.00 in /  0 mm
12:20 67.7 °F /  19.8 °C 55.9 °F /  13.3 °C 29.40 in /  995.5 hPa SSE 3.5 mph /  5.6 km/h 6.9 mph /  11.1 km/h 66 % 0.00 in /  0 mm
12:25 68.1 °F /  20.1 °C 55.9 °F /  13.3 °C 29.40 in /  995.5 hPa South 4.6 mph /  7.4 km/h 16.1 mph /  25.9 km/h 65 % 0.00 in /  0 mm
12:30 67.8 °F /  19.9 °C 54.7 °F /  12.6 °C 29.40 in /  995.5 hPa SSW 5.8 mph /  9.3 km/h 12.7 mph /  20.4 km/h 63 % 0.00 in /  0 mm
12:35 67.9 °F /  19.9 °C 54.8 °F /  12.7 °C 29.40 in /  995.5 hPa South 6.3 mph /  10.1 km/h 9.2 mph /  14.8 km/h 63 % 0.00 in /  0 mm
12:40 67.6 °F /  19.8 °C 55.0 °F /  12.8 °C 29.39 in /  995.1 hPa SW 3.9 mph /  6.3 km/h 9.0 mph /  14.5 km/h 64 % 0.00 in /  0 mm
12:45 67.9 °F /  19.9 °C 55.7 °F /  13.2 °C 29.40 in /  995.5 hPa SSE 7.2 mph /  11.6 km/h 13.0 mph /  20.9 km/h 65 % 0.00 in /  0 mm
12:50 68.2 °F /  20.1 °C 56.0 °F /  13.3 °C 29.39 in /  995.1 hPa SSW 2.0 mph /  3.2 km/h 10.4 mph /  16.7 km/h 65 % 0.00 in /  0 mm
12:55 68.4 °F /  20.2 °C 55.7 °F /  13.2 °C 29.40 in /  995.5 hPa SSW 4.3 mph /  6.9 km/h 11.5 mph /  18.5 km/h 64 % 0.00 in /  0 mm
13:00 68.4 °F /  20.2 °C 55.7 °F /  13.2 °C 29.40 in /  995.5 hPa SSE 4.3 mph /  6.9 km/h 12.0 mph /  19.3 km/h 64 % 0.00 in /  0 mm
13:05 67.8 °F /  19.9 °C 56.0 °F /  13.3 °C 29.40 in /  995.5 hPa South 4.0 mph /  6.4 km/h 10.4 mph /  16.7 km/h 66 % 0.00 in /  0 mm
13:10 67.8 °F /  19.9 °C 56.0 °F /  13.3 °C 29.40 in /  995.5 hPa South 4.3 mph /  6.9 km/h 9.0 mph /  14.5 km/h 66 % 0.00 in /  0 mm
13:15 68.0 °F /  20 °C 55.4 °F /  13 °C 29.40 in /  995.5 hPa South 5.6 mph /  9 km/h 11.5 mph /  18.5 km/h 64 % 0.00 in /  0 mm
13:20 67.5 °F /  19.7 °C 55.3 °F /  12.9 °C 29.41 in /  995.8 hPa SSW 6.4 mph /  10.3 km/h 11.0 mph /  17.7 km/h 65 % 0.00 in /  0 mm
13:25 67.0 °F /  19.4 °C 54.8 °F /  12.7 °C 29.40 in /  995.5 hPa South 6.3 mph /  10.1 km/h 15.0 mph /  24.1 km/h 65 % 0.00 in /  0 mm
13:30 67.3 °F /  19.6 °C 56.0 °F /  13.3 °C 29.40 in /  995.5 hPa South 4.0 mph /  6.4 km/h 6.0 mph /  9.7 km/h 67 % 0.00 in /  0 mm
13:35 67.2 °F /  19.6 °C 55.5 °F /  13.1 °C 29.40 in /  995.5 hPa SSE 5.7 mph /  9.2 km/h 13.0 mph /  20.9 km/h 66 % 0.00 in /  0 mm
13:40 67.1 °F /  19.5 °C 55.4 °F /  13 °C 29.40 in /  995.5 hPa SE 4.5 mph /  7.2 km/h 8.1 mph /  13 km/h 66 % 0.00 in /  0 mm
13:45 66.6 °F /  19.2 °C 55.3 °F /  12.9 °C 29.40 in /  995.5 hPa East 4.0 mph /  6.4 km/h 6.9 mph /  11.1 km/h 67 % 0.00 in /  0 mm
13:50 66.7 °F /  19.3 °C 55.4 °F /  13 °C 29.40 in /  995.5 hPa SSW 6.3 mph /  10.1 km/h 10.4 mph /  16.7 km/h 67 % 0.00 in /  0 mm
13:55 66.7 °F /  19.3 °C 55.8 °F /  13.2 °C 29.41 in /  995.8 hPa SSW 5.6 mph /  9 km/h 11.5 mph /  18.5 km/h 68 % 0.00 in /  0 mm
14:00 66.9 °F /  19.4 °C 56.0 °F /  13.3 °C 29.41 in /  995.8 hPa SE 4.3 mph /  6.9 km/h 15.0 mph /  24.1 km/h 68 % 0.00 in /  0 mm
14:05 66.7 °F /  19.3 °C 55.4 °F /  13 °C 29.41 in /  995.8 hPa South 7.9 mph /  12.7 km/h 11.5 mph /  18.5 km/h 67 % 0.00 in /  0 mm
14:10 66.3 °F /  19.1 °C 55.0 °F /  12.8 °C 29.40 in /  995.5 hPa SSE 7.1 mph /  11.4 km/h 16.1 mph /  25.9 km/h 67 % 0.00 in /  0 mm
14:15 65.7 °F /  18.7 °C 54.8 °F /  12.7 °C 29.41 in /  995.8 hPa SE 5.0 mph /  8 km/h 17.3 mph /  27.8 km/h 68 % 0.00 in /  0 mm
14:20 65.2 °F /  18.4 °C 55.2 °F /  12.9 °C 29.41 in /  995.8 hPa South 3.7 mph /  6 km/h 8.1 mph /  13 km/h 70 % 0.00 in /  0 mm
14:26 65.1 °F /  18.4 °C 55.9 °F /  13.3 °C 29.41 in /  995.8 hPa South 5.0 mph /  8 km/h 10.0 mph /  16.1 km/h 72 % 0.00 in /  0 mm
14:31 65.4 °F /  18.6 °C 55.7 °F /  13.2 °C 29.41 in /  995.8 hPa South 3.7 mph /  6 km/h 11.5 mph /  18.5 km/h 71 % 0.00 in /  0 mm
14:36 65.7 °F /  18.7 °C 56.1 °F /  13.4 °C 29.41 in /  995.8 hPa South 3.0 mph /  4.8 km/h 10.0 mph /  16.1 km/h 71 % 0.00 in /  0 mm
14:41 65.4 °F /  18.6 °C 55.4 °F /  13 °C 29.40 in /  995.5 hPa South 5.0 mph /  8 km/h 18.0 mph /  29 km/h 70 % 0.00 in /  0 mm
14:46 65.0 °F /  18.3 °C 55.0 °F /  12.8 °C 29.40 in /  995.5 hPa South 5.0 mph /  8 km/h 12.0 mph /  19.3 km/h 70 % 0.00 in /  0 mm
14:51 65.2 °F /  18.4 °C 55.2 °F /  12.9 °C 29.40 in /  995.5 hPa South 6.0 mph /  9.7 km/h 14.0 mph /  22.5 km/h 70 % 0.00 in /  0 mm
14:56 65.2 °F /  18.4 °C 55.2 °F /  12.9 °C 29.39 in /  995.1 hPa SSE 3.0 mph /  4.8 km/h 14.0 mph /  22.5 km/h 70 % 0.00 in /  0 mm
14:57 65.4 °F /  18.6 °C 55.4 °F /  13 °C 29.39 in /  995.1 hPa SSE 7.1 mph /  11.4 km/h 13.0 mph /  20.9 km/h 70 % 0.00 in /  0 mm
15:02 65.3 °F /  18.5 °C 54.9 °F /  12.7 °C 29.39 in /  995.1 hPa South 7.0 mph /  11.3 km/h 18.4 mph /  29.6 km/h 69 % 0.00 in /  0 mm
15:07 65.3 °F /  18.5 °C 55.3 °F /  12.9 °C 29.38 in /  994.8 hPa SSW 6.4 mph /  10.3 km/h 9.2 mph /  14.8 km/h 70 % 0.00 in /  0 mm
15:12 64.8 °F /  18.2 °C 54.8 °F /  12.7 °C 29.38 in /  994.8 hPa South 4.4 mph /  7.1 km/h 14.0 mph /  22.5 km/h 70 % 0.00 in /  0 mm
15:17 64.4 °F /  18 °C 54.8 °F /  12.7 °C 29.38 in /  994.8 hPa SSE 3.7 mph /  6 km/h 5.0 mph /  8 km/h 71 % 0.00 in /  0 mm
15:22 64.4 °F /  18 °C 54.8 °F /  12.7 °C 29.38 in /  994.8 hPa South 2.8 mph /  4.5 km/h 13.8 mph /  22.2 km/h 71 % 0.00 in /  0 mm
15:27 64.6 °F /  18.1 °C 55.4 °F /  13 °C 29.38 in /  994.8 hPa South 2.3 mph /  3.7 km/h 6.9 mph /  11.1 km/h 72 % 0.00 in /  0 mm
15:32 65.1 °F /  18.4 °C 55.8 °F /  13.2 °C 29.38 in /  994.8 hPa SSE 3.6 mph /  5.8 km/h 8.1 mph /  13 km/h 72 % 0.00 in /  0 mm
15:37 65.6 °F /  18.7 °C 55.2 °F /  12.9 °C 29.38 in /  994.8 hPa West 3.5 mph /  5.6 km/h 4.6 mph /  7.4 km/h 69 % 0.00 in /  0 mm
15:42 65.9 °F /  18.8 °C 55.0 °F /  12.8 °C 29.38 in /  994.8 hPa South 3.4 mph /  5.5 km/h 9.2 mph /  14.8 km/h 68 % 0.00 in /  0 mm
15:47 66.0 °F /  18.9 °C 55.5 °F /  13.1 °C 29.39 in /  995.1 hPa South 2.4 mph /  3.9 km/h 6.9 mph /  11.1 km/h 69 % 0.00 in /  0 mm
15:52 66.1 °F /  18.9 °C 54.8 °F /  12.7 °C 29.38 in /  994.8 hPa SE 7.5 mph /  12.1 km/h 18.4 mph /  29.6 km/h 67 % 0.00 in /  0 mm
15:57 66.1 °F /  18.9 °C 55.2 °F /  12.9 °C 29.38 in /  994.8 hPa SSW 3.2 mph /  5.1 km/h 7.0 mph /  11.3 km/h 68 % 0.00 in /  0 mm
16:03 66.3 °F /  19.1 °C 55.8 °F /  13.2 °C 29.36 in /  994.1 hPa SSW 3.0 mph /  4.8 km/h 9.2 mph /  14.8 km/h 69 % 0.00 in /  0 mm
16:08 66.7 °F /  19.3 °C 56.2 °F /  13.4 °C 29.36 in /  994.1 hPa SSW 3.3 mph /  5.3 km/h 5.8 mph /  9.3 km/h 69 % 0.00 in /  0 mm
16:13 67.0 °F /  19.4 °C 56.1 °F /  13.4 °C 29.38 in /  994.8 hPa SSE 5.2 mph /  8.4 km/h 9.2 mph /  14.8 km/h 68 % 0.00 in /  0 mm
16:18 66.4 °F /  19.1 °C 55.5 °F /  13.1 °C 29.39 in /  995.1 hPa SE 6.9 mph /  11.1 km/h 15.0 mph /  24.1 km/h 68 % 0.00 in /  0 mm
16:23 65.9 °F /  18.8 °C 55.4 °F /  13 °C 29.39 in /  995.1 hPa South 4.4 mph /  7.1 km/h 8.1 mph /  13 km/h 69 % 0.00 in /  0 mm
16:28 65.7 °F /  18.7 °C 55.6 °F /  13.1 °C 29.39 in /  995.1 hPa SSE 3.9 mph /  6.3 km/h 12.7 mph /  20.4 km/h 70 % 0.00 in /  0 mm
16:33 65.4 °F /  18.6 °C 55.4 °F /  13 °C 29.39 in /  995.1 hPa SSE 8.2 mph /  13.2 km/h 13.8 mph /  22.2 km/h 70 % 0.00 in /  0 mm
16:38 64.7 °F /  18.2 °C 55.1 °F /  12.8 °C 29.39 in /  995.1 hPa SSE 4.1 mph /  6.6 km/h 12.7 mph /  20.4 km/h 71 % 0.00 in /  0 mm
16:43 63.9 °F /  17.7 °C 54.7 °F /  12.6 °C 29.40 in /  995.5 hPa South 3.6 mph /  5.8 km/h 6.9 mph /  11.1 km/h 72 % 0.00 in /  0 mm
16:48 63.5 °F /  17.5 °C 54.7 °F /  12.6 °C 29.40 in /  995.5 hPa SSE 4.6 mph /  7.4 km/h 11.5 mph /  18.5 km/h 73 % 0.00 in /  0 mm
16:53 62.7 °F /  17.1 °C 54.3 °F /  12.4 °C 29.40 in /  995.5 hPa SW 3.8 mph /  6.1 km/h 8.1 mph /  13 km/h 74 % 0.00 in /  0 mm
16:58 62.2 °F /  16.8 °C 54.2 °F /  12.3 °C 29.40 in /  995.5 hPa South 4.1 mph /  6.6 km/h 10.4 mph /  16.7 km/h 75 % 0.00 in /  0 mm
17:03 62.1 °F /  16.7 °C 54.4 °F /  12.4 °C 29.40 in /  995.5 hPa South 3.3 mph /  5.3 km/h 6.9 mph /  11.1 km/h 76 % 0.00 in /  0 mm
17:08 62.0 °F /  16.7 °C 54.3 °F /  12.4 °C 29.40 in /  995.5 hPa South 2.8 mph /  4.5 km/h 6.9 mph /  11.1 km/h 76 % 0.00 in /  0 mm
17:13 62.0 °F /  16.7 °C 55.1 °F /  12.8 °C 29.38 in /  994.8 hPa WSW 1.1 mph /  1.8 km/h 3.5 mph /  5.6 km/h 78 % 0.00 in /  0 mm
17:18 62.2 °F /  16.8 °C 54.9 °F /  12.7 °C 29.38 in /  994.8 hPa SSE 2.5 mph /  4 km/h 4.6 mph /  7.4 km/h 77 % 0.00 in /  0 mm
17:23 62.3 °F /  16.8 °C 55.0 °F /  12.8 °C 29.38 in /  994.8 hPa WSW 4.1 mph /  6.6 km/h 5.8 mph /  9.3 km/h 77 % 0.00 in /  0 mm
17:28 62.2 °F /  16.8 °C 54.9 °F /  12.7 °C 29.38 in /  994.8 hPa SE 5.5 mph /  8.9 km/h 11.5 mph /  18.5 km/h 77 % 0.00 in /  0 mm
17:29 62.1 °F /  16.7 °C 54.4 °F /  12.4 °C 29.38 in /  994.8 hPa SE 3.0 mph /  4.8 km/h 11.5 mph /  18.5 km/h 76 % 0.00 in /  0 mm
17:34 62.0 °F /  16.7 °C 54.7 °F /  12.6 °C 29.37 in /  994.5 hPa SE 2.0 mph /  3.2 km/h 4.6 mph /  7.4 km/h 77 % 0.00 in /  0 mm
17:39 62.0 °F /  16.7 °C 54.7 °F /  12.6 °C 29.36 in /  994.1 hPa SSW 2.6 mph /  4.2 km/h 5.8 mph /  9.3 km/h 77 % 0.00 in /  0 mm
17:44 62.0 °F /  16.7 °C 54.7 °F /  12.6 °C 29.36 in /  994.1 hPa South 1.8 mph /  2.9 km/h 3.5 mph /  5.6 km/h 77 % 0.00 in /  0 mm
17:49 61.8 °F /  16.6 °C 54.5 °F /  12.5 °C 29.36 in /  994.1 hPa SSW 1.1 mph /  1.8 km/h 3.5 mph /  5.6 km/h 77 % 0.00 in /  0 mm
17:54 61.9 °F /  16.6 °C 55.0 °F /  12.8 °C 29.37 in /  994.5 hPa SSW 2.5 mph /  4 km/h 6.9 mph /  11.1 km/h 78 % 0.00 in /  0 mm
17:59 61.8 °F /  16.6 °C 54.5 °F /  12.5 °C 29.38 in /  994.8 hPa South 6.3 mph /  10.1 km/h 11.5 mph /  18.5 km/h 77 % 0.00 in /  0 mm
18:04 61.4 °F /  16.3 °C 54.1 °F /  12.3 °C 29.38 in /  994.8 hPa South 5.9 mph /  9.5 km/h 11.5 mph /  18.5 km/h 77 % 0.00 in /  0 mm
18:09 61.0 °F /  16.1 °C 54.1 °F /  12.3 °C 29.38 in /  994.8 hPa SSE 7.7 mph /  12.4 km/h 10.4 mph /  16.7 km/h 78 % 0.00 in /  0 mm
18:14 60.7 °F /  15.9 °C 54.1 °F /  12.3 °C 29.38 in /  994.8 hPa South 4.0 mph /  6.4 km/h 5.8 mph /  9.3 km/h 79 % 0.00 in /  0 mm
18:19 60.6 °F /  15.9 °C 54.4 °F /  12.4 °C 29.37 in /  994.5 hPa SSE 6.8 mph /  10.9 km/h 8.0 mph /  12.9 km/h 80 % 0.00 in /  0 mm
18:24 60.2 °F /  15.7 °C 54.0 °F /  12.2 °C 29.37 in /  994.5 hPa SE 4.4 mph /  7.1 km/h 12.7 mph /  20.4 km/h 80 % 0.00 in /  0 mm
18:29 59.9 °F /  15.5 °C 53.7 °F /  12.1 °C 29.36 in /  994.1 hPa South 3.7 mph /  6 km/h 6.9 mph /  11.1 km/h 80 % 0.00 in /  0 mm
18:35 59.7 °F /  15.4 °C 53.9 °F /  12.2 °C 29.36 in /  994.1 hPa ESE 1.7 mph /  2.7 km/h 6.9 mph /  11.1 km/h 81 % 0.00 in /  0 mm
18:40 59.5 °F /  15.3 °C 53.7 °F /  12.1 °C 29.36 in /  994.1 hPa SSE 6.0 mph /  9.7 km/h 12.7 mph /  20.4 km/h 81 % 0.00 in /  0 mm
18:45 59.4 °F /  15.2 °C 53.9 °F /  12.2 °C 29.36 in /  994.1 hPa SE 2.7 mph /  4.3 km/h 9.2 mph /  14.8 km/h 82 % 0.00 in /  0 mm
18:50 59.2 °F /  15.1 °C 53.7 °F /  12.1 °C 29.36 in /  994.1 hPa SSE 3.1 mph /  5 km/h 5.8 mph /  9.3 km/h 82 % 0.00 in /  0 mm
18:55 59.1 °F /  15.1 °C 53.6 °F /  12 °C 29.36 in /  994.1 hPa SSE 6.7 mph /  10.8 km/h 11.5 mph /  18.5 km/h 82 % 0.00 in /  0 mm
19:00 58.9 °F /  14.9 °C 53.7 °F /  12.1 °C 29.36 in /  994.1 hPa SSW 0.8 mph /  1.3 km/h 11.5 mph /  18.5 km/h 83 % 0.00 in /  0 mm
19:05 58.7 °F /  14.8 °C 53.5 °F /  11.9 °C 29.36 in /  994.1 hPa SSW 0.3 mph /  0.5 km/h 2.3 mph /  3.7 km/h 83 % 0.00 in /  0 mm
19:10 58.5 °F /  14.7 °C 53.4 °F /  11.9 °C 29.36 in /  994.1 hPa SSE 2.9 mph /  4.7 km/h 4.6 mph /  7.4 km/h 83 % 0.00 in /  0 mm
19:15 58.3 °F /  14.6 °C 53.5 °F /  11.9 °C 29.36 in /  994.1 hPa South 4.7 mph /  7.6 km/h 6.9 mph /  11.1 km/h 84 % 0.00 in /  0 mm
19:20 58.2 °F /  14.6 °C 53.4 °F /  11.9 °C 29.37 in /  994.5 hPa SSE 2.4 mph /  3.9 km/h 7.0 mph /  11.3 km/h 84 % 0.00 in /  0 mm
19:25 58.1 °F /  14.5 °C 53.6 °F /  12 °C 29.37 in /  994.5 hPa SE 1.9 mph /  3.1 km/h 5.8 mph /  9.3 km/h 85 % 0.00 in /  0 mm
19:30 57.9 °F /  14.4 °C 53.4 °F /  11.9 °C 29.37 in /  994.5 hPa South 6.0 mph /  9.7 km/h 10.4 mph /  16.7 km/h 85 % 0.00 in /  0 mm
19:35 57.7 °F /  14.3 °C 53.2 °F /  11.8 °C 29.37 in /  994.5 hPa SSW 4.0 mph /  6.4 km/h 7.0 mph /  11.3 km/h 85 % 0.00 in /  0 mm
19:40 57.5 °F /  14.2 °C 53.3 °F /  11.8 °C 29.37 in /  994.5 hPa South 4.7 mph /  7.6 km/h 10.4 mph /  16.7 km/h 86 % 0.00 in /  0 mm
19:46 57.4 °F /  14.1 °C 53.2 °F /  11.8 °C 29.37 in /  994.5 hPa SSE 2.0 mph /  3.2 km/h 9.0 mph /  14.5 km/h 86 % 0.00 in /  0 mm
19:51 57.3 °F /  14.1 °C 53.1 °F /  11.7 °C 29.38 in /  994.8 hPa South 6.0 mph /  9.7 km/h 14.0 mph /  22.5 km/h 86 % 0.00 in /  0 mm
19:52 57.3 °F /  14.1 °C 53.1 °F /  11.7 °C 29.37 in /  994.5 hPa South 4.7 mph /  7.6 km/h 8.1 mph /  13 km/h 86 % 0.00 in /  0 mm
19:58 57.2 °F /  14 °C 53.0 °F /  11.7 °C 29.37 in /  994.5 hPa SSW 4.6 mph /  7.4 km/h 6.9 mph /  11.1 km/h 86 % 0.00 in /  0 mm
20:03 57.0 °F /  13.9 °C 53.2 °F /  11.8 °C 29.38 in /  994.8 hPa ESE 3.9 mph /  6.3 km/h 6.9 mph /  11.1 km/h 87 % 0.00 in /  0 mm
20:08 56.9 °F /  13.8 °C 53.1 °F /  11.7 °C 29.37 in /  994.5 hPa SSE 3.7 mph /  6 km/h 5.8 mph /  9.3 km/h 87 % 0.00 in /  0 mm
20:13 56.8 °F /  13.8 °C 53.0 °F /  11.7 °C 29.39 in /  995.1 hPa SE 6.3 mph /  10.1 km/h 11.5 mph /  18.5 km/h 87 % 0.00 in /  0 mm
20:18 56.8 °F /  13.8 °C 53.3 °F /  11.8 °C 29.39 in /  995.1 hPa SSE 2.7 mph /  4.3 km/h 5.8 mph /  9.3 km/h 88 % 0.00 in /  0 mm
20:23 56.7 °F /  13.7 °C 53.2 °F /  11.8 °C 29.39 in /  995.1 hPa South 6.4 mph /  10.3 km/h 12.7 mph /  20.4 km/h 88 % 0.00 in /  0 mm
20:28 56.6 °F /  13.7 °C 53.1 °F /  11.7 °C 29.38 in /  994.8 hPa South 3.7 mph /  6 km/h 8.1 mph /  13 km/h 88 % 0.00 in /  0 mm
20:33 56.6 °F /  13.7 °C 53.1 °F /  11.7 °C 29.38 in /  994.8 hPa SSE 10.2 mph /  16.4 km/h 16.1 mph /  25.9 km/h 88 % 0.00 in /  0 mm
20:38 56.5 °F /  13.6 °C 53.0 °F /  11.7 °C 29.39 in /  995.1 hPa SSE 6.4 mph /  10.3 km/h 12.7 mph /  20.4 km/h 88 % 0.00 in /  0 mm
20:43 56.4 °F /  13.6 °C 53.2 °F /  11.8 °C 29.39 in /  995.1 hPa SE 2.5 mph /  4 km/h 3.5 mph /  5.6 km/h 89 % 0.00 in /  0 mm
20:49 56.4 °F /  13.6 °C 53.2 °F /  11.8 °C 29.39 in /  995.1 hPa SSW 2.3 mph /  3.7 km/h 10.4 mph /  16.7 km/h 89 % 0.00 in /  0 mm
20:54 56.4 °F /  13.6 °C 53.2 °F /  11.8 °C 29.39 in /  995.1 hPa SSE 2.5 mph /  4 km/h 3.5 mph /  5.6 km/h 89 % 0.00 in /  0 mm
20:59 56.4 °F /  13.6 °C 53.2 °F /  11.8 °C 29.39 in /  995.1 hPa South 2.2 mph /  3.5 km/h 8.1 mph /  13 km/h 89 % 0.00 in /  0 mm
21:04 56.4 °F /  13.6 °C 53.2 °F /  11.8 °C 29.40 in /  995.5 hPa South 3.5 mph /  5.6 km/h 8.1 mph /  13 km/h 89 % 0.00 in /  0 mm
21:09 56.4 °F /  13.6 °C 53.5 °F /  11.9 °C 29.40 in /  995.5 hPa South 0.8 mph /  1.3 km/h 2.3 mph /  3.7 km/h 90 % 0.00 in /  0 mm
21:14 56.4 °F /  13.6 °C 53.5 °F /  11.9 °C 29.41 in /  995.8 hPa SW 0.8 mph /  1.3 km/h 2.3 mph /  3.7 km/h 90 % 0.00 in /  0 mm
21:19 56.5 °F /  13.6 °C 53.6 °F /  12 °C 29.41 in /  995.8 hPa SSW 1.0 mph /  1.6 km/h 6.9 mph /  11.1 km/h 90 % 0.00 in /  0 mm
21:24 56.5 °F /  13.6 °C 53.6 °F /  12 °C 29.41 in /  995.8 hPa SW 0.6 mph /  1 km/h 6.9 mph /  11.1 km/h 90 % 0.00 in /  0 mm
21:29 56.5 °F /  13.6 °C 53.6 °F /  12 °C 29.41 in /  995.8 hPa SSW 2.0 mph /  3.2 km/h 5.8 mph /  9.3 km/h 90 % 0.00 in /  0 mm
21:34 56.5 °F /  13.6 °C 53.6 °F /  12 °C 29.41 in /  995.8 hPa SSW 3.0 mph /  4.8 km/h 4.6 mph /  7.4 km/h 90 % 0.00 in /  0 mm
21:39 56.5 °F /  13.6 °C 53.9 °F /  12.2 °C 29.41 in /  995.8 hPa SSW 1.4 mph /  2.3 km/h 3.5 mph /  5.6 km/h 91 % 0.00 in /  0 mm
21:44 56.5 °F /  13.6 °C 53.9 °F /  12.2 °C 29.41 in /  995.8 hPa SSW 0.8 mph /  1.3 km/h 4.6 mph /  7.4 km/h 91 % 0.00 in /  0 mm
21:49 56.5 °F /  13.6 °C 53.9 °F /  12.2 °C 29.42 in /  996.2 hPa SSW 1.0 mph /  1.6 km/h 3.0 mph /  4.8 km/h 91 % 0.00 in /  0 mm
21:54 56.5 °F /  13.6 °C 53.9 °F /  12.2 °C 29.42 in /  996.2 hPa SSW 2.6 mph /  4.2 km/h 3.5 mph /  5.6 km/h 91 % 0.00 in /  0 mm
21:59 56.5 °F /  13.6 °C 53.9 °F /  12.2 °C 29.42 in /  996.2 hPa SSW 1.2 mph /  1.9 km/h 3.5 mph /  5.6 km/h 91 % 0.00 in /  0 mm
22:04 56.4 °F /  13.6 °C 53.8 °F /  12.1 °C 29.42 in /  996.2 hPa SSW 0.7 mph /  1.1 km/h 1.2 mph /  1.9 km/h 91 % 0.00 in /  0 mm
22:09 56.4 °F /  13.6 °C 53.8 °F /  12.1 °C 29.42 in /  996.2 hPa SSW 1.3 mph /  2.1 km/h 3.0 mph /  4.8 km/h 91 % 0.00 in /  0 mm
22:14 56.4 °F /  13.6 °C 53.8 °F /  12.1 °C 29.42 in /  996.2 hPa SW 0.7 mph /  1.1 km/h 2.0 mph /  3.2 km/h 91 % 0.00 in /  0 mm
22:15 56.4 °F /  13.6 °C 53.8 °F /  12.1 °C 29.42 in /  996.2 hPa SW 0.9 mph /  1.4 km/h 2.3 mph /  3.7 km/h 91 % 0.00 in /  0 mm
22:20 56.4 °F /  13.6 °C 53.8 °F /  12.1 °C 29.42 in /  996.2 hPa SSW 1.0 mph /  1.6 km/h 3.5 mph /  5.6 km/h 91 % 0.00 in /  0 mm
22:25 56.3 °F /  13.5 °C 53.7 °F /  12.1 °C 29.42 in /  996.2 hPa SW 0.5 mph /  0.8 km/h 3.5 mph /  5.6 km/h 91 % 0.00 in /  0 mm
22:30 56.3 °F /  13.5 °C 53.7 °F /  12.1 °C 29.42 in /  996.2 hPa WSW 1.0 mph /  1.6 km/h 2.3 mph /  3.7 km/h 91 % 0.00 in /  0 mm
22:35 56.2 °F /  13.4 °C 53.6 °F /  12 °C 29.43 in /  996.5 hPa WSW 1.6 mph /  2.6 km/h 4.0 mph /  6.4 km/h 91 % 0.00 in /  0 mm
22:40 56.2 °F /  13.4 °C 53.6 °F /  12 °C 29.43 in /  996.5 hPa SW 0.3 mph /  0.5 km/h 3.5 mph /  5.6 km/h 91 % 0.00 in /  0 mm
22:45 56.2 °F /  13.4 °C 53.6 °F /  12 °C 29.43 in /  996.5 hPa SW 0.5 mph /  0.8 km/h 3.5 mph /  5.6 km/h 91 % 0.00 in /  0 mm
22:50 56.2 °F /  13.4 °C 53.6 °F /  12 °C 29.43 in /  996.5 hPa WSW 0.9 mph /  1.4 km/h 3.5 mph /  5.6 km/h 91 % 0.00 in /  0 mm
22:55 56.2 °F /  13.4 °C 53.9 °F /  12.2 °C 29.43 in /  996.5 hPa SW 0.7 mph /  1.1 km/h 2.3 mph /  3.7 km/h 92 % 0.00 in /  0 mm
23:01 56.2 °F /  13.4 °C 53.9 °F /  12.2 °C 29.43 in /  996.5 hPa WSW 2.3 mph /  3.7 km/h 7.0 mph /  11.3 km/h 92 % 0.00 in /  0 mm
23:06 56.1 °F /  13.4 °C 53.5 °F /  11.9 °C 29.43 in /  996.5 hPa SW 1.7 mph /  2.7 km/h 5.8 mph /  9.3 km/h 91 % 0.00 in /  0 mm
23:11 56.1 °F /  13.4 °C 53.5 °F /  11.9 °C 29.43 in /  996.5 hPa SW 3.5 mph /  5.6 km/h 6.0 mph /  9.7 km/h 91 % 0.00 in /  0 mm
23:16 56.0 °F /  13.3 °C 53.4 °F /  11.9 °C 29.43 in /  996.5 hPa WSW 2.5 mph /  4 km/h 5.8 mph /  9.3 km/h 91 % 0.00 in /  0 mm
23:21 55.9 °F /  13.3 °C 53.0 °F /  11.7 °C 29.43 in /  996.5 hPa SW 0.7 mph /  1.1 km/h 2.3 mph /  3.7 km/h 90 % 0.00 in /  0 mm
23:26 55.9 °F /  13.3 °C 52.7 °F /  11.5 °C 29.43 in /  996.5 hPa WSW 0.2 mph /  0.3 km/h 1.2 mph /  1.9 km/h 89 % 0.00 in /  0 mm
23:31 55.8 °F /  13.2 °C 52.6 °F /  11.4 °C 29.44 in /  996.8 hPa WSW 0.5 mph /  0.8 km/h 3.0 mph /  4.8 km/h 89 % 0.00 in /  0 mm
23:36 55.7 °F /  13.2 °C 52.2 °F /  11.2 °C 29.44 in /  996.8 hPa WSW 1.2 mph /  1.9 km/h 3.5 mph /  5.6 km/h 88 % 0.00 in /  0 mm
23:41 55.7 °F /  13.2 °C 52.2 °F /  11.2 °C 29.44 in /  996.8 hPa SW 1.5 mph /  2.4 km/h 2.0 mph /  3.2 km/h 88 % 0.00 in /  0 mm
23:46 55.6 °F /  13.1 °C 51.8 °F /  11 °C 29.44 in /  996.8 hPa SW 2.2 mph /  3.5 km/h 4.6 mph /  7.4 km/h 87 % 0.00 in /  0 mm
23:51 55.5 °F /  13.1 °C 51.4 °F /  10.8 °C 29.44 in /  996.8 hPa SW 0.2 mph /  0.3 km/h 3.5 mph /  5.6 km/h 86 % 0.00 in /  0 mm
23:56 55.5 °F /  13.1 °C 51.1 °F /  10.6 °C 29.44 in /  996.8 hPa SSW 1.3 mph /  2.1 km/h 6.0 mph /  9.7 km/h 85 % 0.00 in /  0 mm
Crab Meadow Weather
Compliments of Weather Underground - 3 mb

Script developed by  Jim McMurry - jmcmurry@mwt.net Adapted for the template by  Wim van der Kuil - Leuven-Template.eu

Weather Terms: Sleet - Sleet or ice pellets are solid grains of ice formed from the freezing of rain or the refreezing of melted snow, which bounce off the ground and other objects.